This demonstration page uses our WeatherBlox Daily Observations layout. Learn more.

Left ArrowRight Arrow

Hourly Observations for November 25, 2019

Temp ( °F °C ) Dew Point ( °F °C ) Humidity (%) Winds ( mph kmh ) Pressure ( in mb ) Visibility ( mi km ) Precip ( " mm )
12:53 am 00:53 Clear 40 4.4 31 -0.6 70 70 Calm 30.05 1018 9 14 0.00 0.00
1:53 am 01:53 Clear 37 2.8 28 -2.2 70 70 Calm 30.04 1017 9 14 0.00 0.00
2:53 am 02:53 Clear 35 1.7 27 -2.8 72 72 N 6 9 30.06 1018 10 16 0.00 0.00
3:53 am 03:53 Clear 37 2.8 30 -1.1 76 76 WSW 5 7 30.09 1019 10 16 0.00 0.00
4:53 am 04:53 Clear 50 10 26 -3.3 39 39 N 14 22 30.10 1019 10 16 0.00 0.00
5:53 am 05:53 Clear 50 10 25 -3.9 38 38 N 6 9 30.10 1019 10 16 0.00 0.00
6:53 am 06:53 Clear 51 10.6 25 -3.9 36 36 N 7 11 30.11 1020 10 16 0.00 0.00
7:53 am 07:53 Sunny 50 10 26 -3.3 39 39 N 6 9 30.13 1020 10 16 0.00 0.00
8:53 am 08:53 Sunny 55 12.8 26 -3.3 33 33 NNE 10 17 30.15 1021 10 16 0.00 0.00
9:53 am 09:53 Sunny 58 14.4 25 -3.9 28 28 N 12 19 30.15 1021 10 16 0.00 0.00
10:53 am 10:53 Sunny 59 15 24 -4.4 26 26 N 13 20 30.14 1021 10 16 0.00 0.00
11:53 am 11:53 Sunny 61 16.1 23 -5 23 23 N 13 20 30.12 1020 10 16 0.00 0.00
12:53 pm 12:53 Mostly Sunny 61 16.1 23 -5 23 23 N 8 13 30.09 1019 10 16 0.00 0.00
1:53 pm 13:53 Sunny 62 16.7 22 -5.6 21 21 NNE 14 22 30.06 1018 10 16 0.00 0.00
2:53 pm 14:53 Sunny 61 16.1 21 -6.1 21 21 N 14 22 30.06 1018 10 16 0.00 0.00
3:53 pm 15:53 Sunny 60 15.6 21 -6.1 22 22 N 10 17 30.06 1018 10 16 0.00 0.00
4:53 pm 16:53 Clear 55 12.8 21 -6.1 26 26 NNE 8 13 30.06 1018 10 16 0.00 0.00
5:53 pm 17:53 Clear 54 12.2 22 -5.6 29 29 NNE 13 20 30.08 1019 10 16 0.00 0.00
6:53 pm 18:53 Clear 52 11.1 23 -5 32 32 N 13 20 30.09 1019 10 16 0.00 0.00
7:53 pm 19:53 Clear 52 11.1 24 -4.4 34 34 N 9 15 30.11 1020 10 16 0.00 0.00
8:53 pm 20:53 Clear 48 8.9 23 -5 37 37 WNW 3 6 30.12 1020 10 16 0.00 0.00
9:53 pm 21:53 Clear 44 6.7 23 -5 43 43 Calm 30.13 1020 10 16 0.00 0.00
10:53 pm 22:53 Clear 41 5 23 -5 49 49 Calm 30.12 1020 10 16 0.00 0.00
11:53 pm 23:53 Clear 37 2.8 23 -5 57 57 Calm 30.11 1020 10 16 0.00 0.00

Powered by AerisWeather